Location: Innerarity Island Observatory
(30.3139°N, 87.4867°W)
Time: 00:05:11
(UTC-05:00)

OPAL - Visible Passes

Search period start: 31 July 2015 00:00
Search period end: 10 August 2015 00:00
Orbit: 743 x 796 km, 100.2° (Epoch: 29 July)

Date Brightness Start Highest point End Pass type
(mag) Time Alt. Az. Time Alt. Az. Time Alt. Az.
31 Jul 8.0 21:15:37 10° NE 21:20:10 36° E 21:20:32 35° ESE visible
31 Jul 9.7 22:55:13 10° NNW 22:58:52 20° WNW 23:00:49 16° W visible
01 Aug 9.1 20:41:56 10° ENE 20:44:29 15° E 20:44:29 15° E visible
01 Aug 8.3 22:18:53 10° N 22:23:41 47° WNW 22:24:46 40° WSW visible
02 Aug 7.3 21:43:23 10° NNE 21:48:23 71° ESE 21:48:43 68° SE visible
02 Aug 10.4 23:25:48 10° NW 23:26:49 10° WNW 23:27:29 10° WNW visible
03 Aug 8.4 21:08:39 10° NE 21:12:40 28° E 21:12:40 28° E visible
03 Aug 9.4 22:47:37 10° NNW 22:51:43 25° WNW 22:52:57 22° W visible
04 Aug 9.4 20:35:53 10° ENE 20:36:37 11° E 20:36:37 11° E visible
04 Aug 7.9 22:11:33 10° N 22:16:31 60° WNW 22:16:54 58° W visible
05 Aug 7.6 21:36:15 10° NNE 21:40:50 54° E 21:40:50 54° E visible
05 Aug 10.1 23:17:10 10° NW 23:19:42 13° WNW 23:21:07 12° W visible
06 Aug 8.8 21:01:47 10° NE 21:04:47 22° E 21:04:47 22° E visible
06 Aug 9.0 22:40:08 10° N 22:44:34 31° WNW 22:45:04 31° W visible
07 Aug 7.6 22:04:17 10° N 22:09:00 73° NW 22:09:00 73° NW visible
08 Aug 8.1 21:29:10 10° NNE 21:32:56 38° ENE 21:32:56 38° ENE visible
08 Aug 9.9 23:09:15 10° NNW 23:12:34 17° WNW 23:13:13 17° WNW visible
09 Aug 9.2 20:55:04 10° NE 20:56:53 16° ENE 20:56:53 16° ENE visible
09 Aug 8.7 22:32:42 10° N 22:37:10 39° WNW 22:37:10 39° WNW visible
